Location: Litvinovka
(48.6667°N, 34.3500°E)
Time: 07:29:16
(UTC+00:00)

Lacrosse 5 rocket - Pass Details

Date: 18 September 2020
Orbit: 461 x 635 km, 57.0° (Epoch: 21 October)

Event Time Altitude Azimuth Distance (km) Brightness Sun altitude
Rises 19:51:21 0° 302° (WNW) 2,847 5.8 -35.0°
Reaches altitude 10° 19:53:44 10° 310° (NW) 1,967 4.8 -35.2°
Enters shadow 19:55:13 19° 321° (NW) 1,471 4.1 -35.3°
